Regional Weather Roundup
Issued by NWS Grand Forks, ND

Home | Current Version | Previous Version | Text Only | Print | Product List | Glossary Off
Versions: 1 2 3 4 5 6 7 8 9 10 11 12 13 14 15 16 17 18 19 20 21 22 23 24 25 26 27 28 29 30 31 32 33 34 35 36 37 38 39 40 41 42 43 44 45 46 47 48 49 50

000
ASUS43 KFGF 100410
RWRFGF
PRAIRIE TO PINES  WEATHER ROUNDUP
NATIONAL WEATHER SERVICE EASTERN NORTH DAKOTA/GRAND FORKS ND
1000 PM CST FRI DEC 09 2016

 **SATELLITE DATA USED TO AUGMENT SKY COVER AT AUTOMATED STATIONS**
 *****  WEATHER ACROSS EASTERN NORTH DAKOTA  *****

CITY           SKY/WX    TMP DP  RH WIND       PRES   REMARKS
GRAND FORKS    CLOUDY    -4 -10  75 NW7       30.56S WCI -18
GRAND FRKS AFB CLOUDY    -4 -11  73 NW7       30.56R WCI -18
DEVILS LAKE    NOT AVBL
FARGO          CLOUDY    -4 -12  68 NW10      30.57R WCI -21
WAHPETON ARPT  CLEAR     -2  -9  71 NW8       30.56S WCI -17
$$

 ***** WEATHER ACROSS CENTRAL AND WESTERN NORTH DAKOTA  *****

CITY           SKY/WX    TMP DP  RH WIND       PRES   REMARKS
BISMARCK       CLOUDY   -15 -19  82 CALM      30.52S
MINOT          CLOUDY   -12 -18  74 W6        30.48F WCI -26
JAMESTOWN      CLOUDY   -13 -17  82 NW9       30.51S WCI -31
MINOT AFB      CLOUDY   -20 -26  74 NW7       30.48F WCI -37
GARRISON         N/A    -18 -23  77 CALM      30.47S
WILLISTON      CLOUDY   -14 -20  74 NE3       30.46F
DICKINSON      CLOUDY   -17 -22  78 S5        30.35F WCI -30
HETTINGER      CLOUDY   -11 -15  82 S3        30.38S
$$

 *****  OTHER AIRPORT OBSERVATIONS IN OUR AREA  *****

CITY           SKY/WX    TMP DP  RH WIND       PRES   REMARKS
WALHALLA         N/A     -6  -6 100 NW6       30.56S WCI -18
GRAFTON AIRPOR CLOUDY    -2  -8  78 NW7       30.58S WCI -16
VALLEY CITY AR FAIR     -11 -17  77 NW6       30.54R WCI -25
CANDO          FAIR     -15 -18  84 NW3       30.53S
CAVALIER APRT    N/A     -4  -9  77 NW8       30.56S WCI -19
GWINNER        FAIR      -6  -9  84 NW10      30.54S WCI -23
SHEYENNE NWR     N/A     -7 -15  67 NW7       29.95S WCI -21
ROLLA          FAIR     -18 -22  83 CALM      30.46S
 ***** THE ABOVE OBSERVATIONS ARE NON NWS ARE NOT QUALITY
       CONTROLLED AND MAY MIS-REPORT RAIN FOR SNOW...
$$

  *****  WEATHER ACROSS NORTHERN MINNESOTA  *****

CITY           SKY/WX    TMP DP  RH WIND       PRES   REMARKS
FLAG ISLAND    CLOUDY    -2  -6  84 W9        30.45S WCI -18
WARROAD        PTCLDY    -6  -9  84 SW5       30.48S WCI -17
ROSEAU         MOCLDY    -4  -8  84 W7        30.49S WCI -18
HALLOCK        CLOUDY    -2  -8  78 NW9       30.54S WCI -18
THF RVR FALLS  FLURRIES -10 -14  82 W5        30.52R WCI -22
BAUDETTE       CLOUDY    -1  -8  72 W10       30.44S WCI -17
WASKISH        CLOUDY     0  -6  78 NW9       30.46S WCI -16
CROOKSTON      CLOUDY    -9 -15  77 W3        30.56S
GREENBUSH NDAW   N/A     -6  -9  84 W7          N/A  WCI -20
$$
  *****  WEATHER ACROSS CENTRAL AND WEST MINNESOTA  *****

CITY           SKY/WX    TMP DP  RH WIND       PRES   REMARKS
FOSSTON        CLOUDY    -6 -11  77 CALM      30.49S
BEMIDJI        FLURRIES   0  -5  80 W7        30.45S WCI -13
PARK RAPIDS    CLOUDY     2  -6  69 W9        30.45R WCI -13
ELBOW LAKE     FAIR      -3  -6  87 NW6       30.52R WCI -15
WADENA         FLURRIES  -6  -8  92 W3        30.47S
DETROIT LAKES  MOCLDY    -2  -6  84 NW5       30.49S WCI -12
MOORHEAD       CLOUDY    -4  -9  77 NW10      30.56S WCI -21
FERGUS FALLS   CLOUDY    -2  -6  84 NW8       30.57S WCI -17
MORRIS MN      CLEAR     -2  -6  84 NW6       30.52R WCI -14
STAPLES        NOT AVBL
$$
  *****  WEATHER ELSEWHERE ACROSS MINNESOTA  *****

CITY           SKY/WX    TMP DP  RH WIND       PRES   REMARKS
DULUTH         CLOUDY     6  -3  66 NW8       30.39F WCI  -7
INTRNTL FALLS  PTCLDY    -4  -9  79 W6        30.43S WCI -16
ELY            CLOUDY     3  -4  72 W7        30.38S WCI  -9
CLOQUET        CLOUDY     7   0  72 W3        30.41S
WHEATON        CLEAR      1  -2  85 NW8       30.57S WCI -12
BRAINERD       CLOUDY     7  -1  70 NW7       30.45S WCI  -5
HIBBING        MIX PCPN   3  -2  79 NW9       30.41S WCI -12
ALEXANDRIA     CLEAR     -2  -6  83 NW8       30.48S WCI -17
SAINT CLOUD    PTCLDY     4  -1  80 W10       30.49S WCI -11
MINNEAPOLIS    MOCLDY    11   3  70 W9        30.50R WCI  -2
$$

  *****  WEATHER ACROSS SOUTH DAKOTA  *****

CITY           SKY/WX    TMP DP  RH WIND       PRES   REMARKS
SIOUX FALLS    FLURRIES  13  10  88 N5        30.48S WCI   5
BROOKINGS      FLURRIES   4  -1  80 N6        30.47F WCI  -7
WATERTOWN      CLOUDY     1  -4  79 N3        30.46F
HURON          CLOUDY     5   1  83 CALM      30.52F
SISSETON         N/A     -2  -7  79 NW7       30.54R WCI -15
ABERDEEN       CLOUDY    -4 -12  68 N7        30.54F WCI -18
MITCHELL       CLOUDY     7   2  80 N8        30.52F WCI  -6
PIERRE         CLOUDY    -7 -11  83 N8        30.48F WCI -23
MOBRIDGE       CLOUDY    -5 -11  75 NW6       30.47R HAZE    WCI -18
RAPID CITY     LGT SNOW   1  -3  83 SE10      30.28F FOG     WCI -15
$$

  *****  SOME WEATHER IN NEARBY STATES *****

CITY           SKY/WX    TMP DP  RH WIND       PRES   REMARKS
GLASGOW MT     CLOUDY    -3  -8  79 E18G24    30.31F WCI -25
GREAT FALLS MT CLOUDY     0  -5  79 NE5       30.04F WCI -10
CHEYENNE WY    CLOUDY    25  21  85 S5        30.08S WCI  19
SCOTTSBLUFF NE CLOUDY    14   5  67 E10       30.18F WCI   1
OMAHA NE       CLOUDY    22  11  62 SE7       30.50F WCI  13
DES MOINES IA  CLOUDY    22  12  65 W6        30.52F WCI  14
DAVENPORT IA   CLOUDY    19  13  77 W6        30.54R WCI  11
CHICAGO IL     CLOUDY    19  12  74 W8        30.50R WCI   9
EAU CLAIRE WI  CLOUDY    15   9  76 W8        30.45S WCI   4
LA CROSSE WI   CLOUDY    19  11  70 NW9       30.50S WCI   8
$$

  *****  SOME NATIONAL WEATHER *****

CITY           SKY/WX    TMP DP  RH WIND       PRES   REMARKS
LA GUARDIA NY  CLEAR     33  14  45 NW17      30.29S WCI  22
RALEIGH NC     CLEAR     28  14  55 CALM      30.47S
ATLANTA GA     CLEAR     32  17  54 NW7       30.46R
NEW ORLEANS LA CLEAR     47  24  40 NE10      30.51R
OKLAHOMA CITY  CLOUDY    33  16  49 SE9       30.46F
ALBUQUERQUE NM CLOUDY    35  25  66 E3        30.30S
SALT LAKE CITY CLOUDY    34  29  82 CALM      30.06F
LOS ANGELES CA CLOUDY    61  59  93 SE6       30.15F
BOISE ID       FOG       30  29  96 NW7       30.00S VSB 1   WCI  23
SEATTLE WA     LGT RAIN  35  31  85 SE12      29.81F
$$

*** WEATHER ACROSS MANITOBA...SASKATCHEWAN AND ONTARIO ***
                ***ONTARIO***

CITY           SKY/WX    TMP DP  RH WIND       PRES   REMARKS
GERALDTON      FLURRIES   1  -2  85 W2        30.29S
THUNDER BAY    CLOUDY    12   5  73 NW8       30.38S WCI   1
SIOUX LOOKOUT  FLURRIES   1  -4  78 NW5       30.35S WCI  -8
TORONTO        PTCLDY    21  14  73 CALM      30.32S
BIG TROUT LK   FLURRIES  -2  -8  78 NW15      30.36F WCI -22
PICKLE LAKE    NOT AVBL
DRYDEN         CLOUDY     1  -4  78 W9        30.36S WCI -14
KENORA         FLURRIES  -4  -8  84 NW8       30.40S WCI -19
$$
                *** MANITOBA***

CITY           SKY/WX    TMP DP  RH WIND       PRES   REMARKS
BRANDON        CLEAR    -17 -22  76 W7        30.51F WCI -33
DAUPHIN        CLEAR    -17 -22  76 W10       30.54S WCI -37
ISLAND LAKE    NOT AVBL
PILOT MOUND      N/A    -18 -22  83 NW8         N/A  WCI -37
THE PAS        FLURRIES  -8 -13  77 W8        30.53F WCI -23
THOMPSON       NOT AVBL
WINNIPEG       PTCLDY    -8 -13  77 W6        30.54S WCI -21
LYNN LAKE      FLURRIES  -6  -8  92 W3        30.43F
CHURCHILL      CLEAR     -9 -15  77 W16       30.37F WCI -32
GILLAM         CLEAR     -9 -15  77 NW10      30.43F WCI -28
$$
                ***SASKATCHEWAN***

CITY           SKY/WX    TMP DP  RH WIND       PRES   REMARKS
ESTEVAN        PTCLDY   -18 -24  76 W3        30.45F
KINDERSLEY     PTCLDY   -15 -18  84 SE9       30.31F WCI -33
LLOYDMINSTER   CLEAR    -15 -20  76 S2        30.33F
PRINCE ALBERT  CRYSTALS -18 -24  76 W2        30.48F
REGINA         CLEAR    -17 -20  83 S6        30.43F WCI -31
YORKTON        CLEAR    -13 -17  84 W6        30.46S WCI -27
N. BATTLEFORD  CLEAR    -18 -24  76 E5        30.43F WCI -31
LA RONGE       CLEAR    -22 -27  76 CALM      30.49F
SASKATOON      CRYSTALS  -9 -15  77 E3        30.46F
SWIFT CURRENT  FLURRIES  -2  -8  78 SE10      30.25F WCI -19
$$
NOTE: THESE ARE AUTOMATED STATIONS WITH LIMITED QUALITY CONTROL
      "FAIR" INDICATES FEW OR NO CLOUDS BELOW 12,000 FEET WITH NO
      SIGNIFICANT WEATHER AND/OR OBSTRUCTIONS TO VISIBILITY.
      SKY/WX - SKY CONDITION AND SIGNIFICANT WEATHER.
      TMP - AIR TEMPERATURE.    DP   - DEWPOINT TEMPERATURE.
      RH  - RELATIVE HUMIDITY.  PRES - PRESSURE.
      HX  - HEAT INDEX.         WCI  - WIND CHILL INDEX.
$




USA.gov is the U.S. government's official web portal to all federal, state and local government web resources and services.